,,Stat5,,Stat1,,Stat2,,Stat3,,Stat4,,Wind1,,Wind1,
time,status,PA1M_AVG,status,PR1M_SUM,status,RH1M_AVG,status,SR1M_AVG,status,TA1M_AVG,status,W1dAve1m,status,W1sAve1m,
2000-07-24, 00:00:01,VALID,917.692,VALID,0,VALID,100,VALID,0.0169808,VALID,18.3197,VALID,140,VALID,0.586739,
2000-07-24, 00:01:00,VALID,917.691,VALID,0,VALID,100,VALID,0.0169808,VALID,18.3068,VALID,141,VALID,0.551192,
2000-07-24, 00:02:00,VALID,917.69,VALID,0,VALID,100,VALID,0.0169808,VALID,18.2974,VALID,148,VALID,0.572985,
2000-07-24, 00:03:00,VALID,917.677,VALID,0,VALID,100,VALID,0.0339617,VALID,18.2872,VALID,151,VALID,0.527238,
2000-07-24, 00:04:00,VALID,917.663,VALID,0,VALID,100,VALID,0.0339617,VALID,18.2838,VALID,151,VALID,0.568834,
2000-07-24, 00:05:00,VALID,917.637,VALID,0,VALID,100,VALID,0.0339617,VALID,18.2711,VALID,151,VALID,0.532629,
2000-07-24, 00:06:00,VALID,917.616,VALID,0,VALID,100,VALID,0.0509425,VALID,18.2884,VALID,150,VALID,0.442845,
2000-07-24, 00:07:00,VALID,917.603,VALID,0,VALID,100,VALID,0.0169808,VALID,18.281,VALID,149,VALID,0.433036,
2000-07-24, 00:08:00,VALID,917.617,VALID,0,VALID,100,VALID,0.0509425,VALID,18.2748,VALID,146,VALID,0.3852,
2000-07-24, 00:09:00,VALID,917.618,VALID,0,VALID,100,VALID,0.0169808,VALID,18.2618,VALID,145,VALID,0.263514,
2000-07-24, 00:10:00,VALID,917.631,VALID,0,VALID,100,VALID,0,VALID,18.2162,VALID,149,VALID,0.3748,
2000-07-24, 00:11:00,VALID,917.64,VALID,0,VALID,100,VALID,0.0679233,VALID,18.1973,VALID,171,VALID,0.404811,
2000-07-24, 00:12:00,VALID,917.644,VALID,0,VALID,100,VALID,-0.0849042,VALID,18.1825,VALID,174,VALID,0.267887,
2000-07-24, 00:13:00,VALID,917.66,VALID,0,VALID,100,VALID,-0.0509425,VALID,18.1919,VALID,174,VALID,0,
2000-07-24, 00:14:00,VALID,917.663,VALID,0,VALID,100,VALID,-0.0849042,VALID,18.2014,VALID,174,VALID,0,
2000-07-24, 00:15:00,VALID,917.654,VALID,0,VALID,100,VALID,-0.0339617,VALID,18.2019,VALID,174,VALID,0,
2000-07-24, 00:16:00,VALID,917.64,VALID,0,VALID,100,VALID,-0.101885,VALID,18.1827,VALID,173,VALID,0,
2000-07-24, 00:17:00,VALID,917.627,VALID,0,VALID,100,VALID,-0.101885,VALID,18.1954,VALID,167,VALID,0,
2000-07-24, 00:18:00,VALID,917.622,VALID,0,VALID,100,VALID,-0.0679233,VALID,18.2215,VALID,152,VALID,0,
2000-07-24, 00:19:00,VALID,917.613,VALID,0,VALID,100,VALID,-0.0339617,VALID,18.2856,VALID,151,VALID,0,
2000-07-24, 00:20:00,VALID,917.601,VALID,0,VALID,100,VALID,-0.0509425,VALID,18.3308,VALID,151,VALID,0,
2000-07-24, 00:21:00,VALID,917.595,VALID,0,VALID,100,VALID,-0.0849042,VALID,18.3477,VALID,150,VALID,0,
2000-07-24, 00:22:00,VALID,917.588,VALID,0,VALID,100,VALID,-0.0339617,VALID,18.3539,VALID,150,VALID,0,
2000-07-24, 00:23:00,VALID,917.584,VALID,0,VALID,100,VALID,-0.0849042,VALID,18.3435,VALID,150,VALID,0,
2000-07-24, 00:24:00,VALID,917.584,VALID,0,VALID,100,VALID,-0.0849042,VALID,18.3336,VALID,162,VALID,0,
2000-07-24, 00:25:00,VALID,917.593,VALID,0,VALID,100,VALID,-0.0679233,VALID,18.328,VALID,204,VALID,0.175781,
2000-07-24, 00:26:00,VALID,917.579,VALID,0,VALID,100,VALID,-0.101885,VALID,18.2918,VALID,233,VALID,0.62315,
2000-07-24, 00:27:00,VALID,917.586,VALID,0,VALID,100,VALID,0.0339617,VALID,18.2812,VALID,231,VALID,0.86472,
2000-07-24, 00:28:00,VALID,917.577,VALID,0,VALID,100,VALID,0.0169808,VALID,18.2715,VALID,230,VALID,0.993627,
2000-07-24, 00:29:00,VALID,917.568,VALID,0,VALID,100,VALID,0.0169808,VALID,18.2814,VALID,224,VALID,0.941306,
2000-07-24, 00:30:00,VALID,917.534,VALID,0,VALID,100,VALID,0.0169808,VALID,18.2812,VALID,223,VALID,0.691211,
2000-07-24, 00:31:00,VALID,917.514,VALID,0,VALID,100,VALID,0,VALID,18.2907,VALID,219,VALID,0.942434,
2000-07-24, 00:32:00,VALID,917.491,VALID,0,VALID,100,VALID,0,VALID,18.2939,VALID,211,VALID,0.784745,
2000-07-24, 00:33:00,VALID,917.47,VALID,0,VALID,100,VALID,0.0339617,VALID,18.2971,VALID,219,VALID,0.687294,
2000-07-24, 00:34:00,VALID,917.451,VALID,0,VALID,100,VALID,0.0169808,VALID,18.3004,VALID,209,VALID,0.691406,
2000-07-24, 00:35:00,VALID,917.43,VALID,0,VALID,100,VALID,0.0169808,VALID,18.3135,VALID,208,VALID,0.504934,
2000-07-24, 00:36:00,VALID,917.408,VALID,0,VALID,100,VALID,0.0169808,VALID,18.3306,VALID,215,VALID,0.0509868,
2000-07-24, 00:37:00,VALID,917.385,VALID,0,VALID,100,VALID,0.0169808,VALID,18.3165,VALID,216,VALID,0.393029,
2000-07-24, 00:38:00,VALID,917.366,VALID,0,VALID,100,VALID,0.0169808,VALID,18.316,VALID,209,VALID,0.601172,
2000-07-24, 00:39:00,VALID,917.333,VALID,0,VALID,100,VALID,0,VALID,18.3038,VALID,215,VALID,0.470189,
2000-07-24, 00:40:00,VALID,917.305,VALID,0,VALID,100,VALID,0,VALID,18.284,VALID,219,VALID,0.344161,
2000-07-24, 00:41:00,VALID,917.262,VALID,0,VALID,100,VALID,0.0169808,VALID,18.3038,VALID,218,VALID,0.43051,
2000-07-24, 00:42:00,VALID,917.221,VALID,0,VALID,100,VALID,-0.101885,VALID,18.2987,VALID,217,VALID,0.593133,
2000-07-24, 00:43:00,VALID,917.196,VALID,0,VALID,100,VALID,-0.101885,VALID,18.2821,VALID,220,VALID,0.661184,
2000-07-24, 00:44:00,VALID,917.178,VALID,0,VALID,100,VALID,-0.0849042,VALID,18.2858,VALID,219,VALID,0.545573,
2000-07-24, 00:45:00,VALID,917.167,VALID,0,VALID,100,VALID,-0.0679233,VALID,18.2858,VALID,209,VALID,0.514623,
2000-07-24, 00:46:00,VALID,917.164,VALID,0,VALID,100,VALID,-0.0679233,VALID,18.2658,VALID,215,VALID,0.662109,
2000-07-24, 00:47:00,VALID,917.144,VALID,0,VALID,100,VALID,-0.0849042,VALID,18.2662,VALID,218,VALID,0.676604,
2000-07-24, 00:48:00,VALID,917.13,VALID,0,VALID,100,VALID,-0.101885,VALID,18.2731,VALID,213,VALID,0.738281,
2000-07-24, 00:49:00,VALID,917.122,VALID,0,VALID,100,VALID,-0.101885,VALID,18.2824,VALID,210,VALID,0.877467,
2000-07-24, 00:50:00,VALID,917.107,VALID,0,VALID,100,VALID,-0.0849042,VALID,18.2826,VALID,205,VALID,0.832648,
2000-07-24, 00:51:00,VALID,917.095,VALID,0,VALID,100,VALID,-0.0679233,VALID,18.2888,VALID,183,VALID,0.903577,
2000-07-24, 00:52:00,VALID,917.082,VALID,0,VALID,100,VALID,-0.0849042,VALID,18.2854,VALID,181,VALID,0.798109,
2000-07-24, 00:53:00,VALID,917.06,VALID,0,VALID,100,VALID,-0.101885,VALID,18.2796,VALID,197,VALID,0.768029,
2000-07-24, 00:54:00,VALID,917.032,VALID,0,VALID,100,VALID,-0.0849042,VALID,18.2768,VALID,204,VALID,0.639844,
2000-07-24, 00:55:00,VALID,917.015,VALID,0,VALID,100,VALID,-0.0849042,VALID,18.2727,VALID,211,VALID,0.941406,
2000-07-24, 00:56:00,VALID,917.003,VALID,0,VALID,100,VALID,-0.0849042,VALID,18.2731,VALID,221,VALID,0.428865,
2000-07-24, 00:57:00,VALID,916.987,VALID,0,VALID,100,VALID,0.0169808,VALID,18.2588,VALID,208,VALID,0.52097,
2000-07-24, 00:58:00,VALID,916.983,VALID,0,VALID,100,VALID,0.0169808,VALID,18.2487,VALID,207,VALID,0.463199,
2000-07-24, 00:59:00,VALID,916.962,VALID,0,VALID,100,VALID,0.0169808,VALID,18.2556,VALID,206,VALID,0.689967,
2000-07-24, 01:00:00,VALID,916.974,VALID,0,VALID,100,VALID,0.0509425,VALID,18.2591,VALID,197,VALID,0.554688,
2000-07-24, 01:01:00,VALID,916.961,VALID,0,VALID,100,VALID,0.0169808,VALID,18.2489,VALID,149,VALID,0.0222356,
2000-07-24, 01:02:00,VALID,916.948,VALID,0,VALID,100,VALID,0.0169808,VALID,18.2395,VALID,113,VALID,0,
2000-07-24, 01:03:00,VALID,916.928,VALID,0,VALID,100,VALID,0.0509425,VALID,18.2132,VALID,113,VALID,0,
2000-07-24, 01:04:00,VALID,916.89,VALID,0,VALID,100,VALID,0.0339617,VALID,18.1843,VALID,113,VALID,0,
2000-07-24, 01:05:00,VALID,916.882,VALID,0,VALID,100,VALID,0.0339617,VALID,18.1518,VALID,113,VALID,0,
2000-07-24, 01:06:00,VALID,916.84,VALID,0,VALID,100,VALID,0.0679233,VALID,18.1458,VALID,113,VALID,0,
2000-07-24, 01:07:00,VALID,916.812,VALID,0,VALID,100,VALID,0.0509425,VALID,18.1297,VALID,113,VALID,0,
2000-07-24, 01:08:00,VALID,916.788,VALID,0,VALID,100,VALID,0.0169808,VALID,18.1068,VALID,113,VALID,0,
2000-07-24, 01:09:00,VALID,916.761,VALID,0,VALID,100,VALID,0,VALID,18.0974,VALID,113,VALID,0,
2000-07-24, 01:10:00,VALID,916.754,VALID,0,VALID,100,VALID,0.0339617,VALID,18.0649,VALID,113,VALID,0,
2000-07-24, 01:11:00,VALID,916.752,VALID,0,VALID,100,VALID,0,VALID,18.0485,VALID,120,VALID,0,
2000-07-24, 01:12:00,VALID,916.728,VALID,0,VALID,100,VALID,-0.101885,VALID,18.0441,VALID,139,VALID,0,
2000-07-24, 01:13:00,VALID,916.725,VALID,0,VALID,100,VALID,-0.0849042,VALID,18.0471,VALID,139,VALID,0,
2000-07-24, 01:14:00,VALID,916.714,VALID,0,VALID,100,VALID,-0.0849042,VALID,18.0342,VALID,139,VALID,0,
2000-07-24, 01:15:00,VALID,916.693,VALID,0,VALID,100,VALID,-0.101885,VALID,18.0021,VALID,139,VALID,0,
2000-07-24, 01:16:00,VALID,916.676,VALID,0,VALID,100,VALID,-0.0849042,VALID,17.9696,VALID,139,VALID,0,
2000-07-24, 01:17:00,VALID,916.651,VALID,0,VALID,100,VALID,-0.0849042,VALID,17.9894,VALID,139,VALID,0,
2000-07-24, 01:18:00,VALID,916.641,VALID,0,VALID,100,VALID,-0.0849042,VALID,18.0025,VALID,139,VALID,0,
2000-07-24, 01:19:00,VALID,916.632,VALID,0,VALID,100,VALID,-0.0849042,VALID,17.9472,VALID,139,VALID,0,
2000-07-24, 01:20:00,VALID,916.609,VALID,0,VALID,100,VALID,-0.0849042,VALID,17.8821,VALID,139,VALID,0,
2000-07-24, 01:21:00,VALID,916.587,VALID,0,VALID,100,VALID,-0.0679233,VALID,17.8245,VALID,139,VALID,0,
2000-07-24, 01:22:00,VALID,916.572,VALID,0,VALID,100,VALID,-0.0509425,VALID,17.8406,VALID,139,VALID,0,
2000-07-24, 01:23:00,VALID,916.546,VALID,0,VALID,100,VALID,-0.0849042,VALID,17.8563,VALID,139,VALID,0,
2000-07-24, 01:24:00,VALID,916.514,VALID,0,VALID,100,VALID,-0.0849042,VALID,17.8173,VALID,139,VALID,0,
2000-07-24, 01:25:00,VALID,916.483,VALID,0,VALID,100,VALID,-0.0509425,VALID,17.7567,VALID,139,VALID,0,
2000-07-24, 01:26:00,VALID,916.46,VALID,0,VALID,100,VALID,-0.0679233,VALID,17.702,VALID,139,VALID,0,
2000-07-24, 01:27:00,VALID,916.42,VALID,0,VALID,100,VALID,-0.0509425,VALID,17.6916,VALID,139,VALID,0,
2000-07-24, 01:28:00,VALID,916.416,VALID,0,VALID,100,VALID,-0.0509425,VALID,17.7306,VALID,139,VALID,0,
2000-07-24, 01:29:00,VALID,916.407,VALID,0,VALID,100,VALID,-0.0339617,VALID,17.7306,VALID,139,VALID,0,
2000-07-24, 01:30:00,VALID,916.415,VALID,0,VALID,100,VALID,-0.0679233,VALID,17.6628,VALID,139,VALID,0,
2000-07-24, 01:31:00,VALID,916.416,VALID,0,VALID,100,VALID,-0.0679233,VALID,17.5664,VALID,139,VALID,0,
2000-07-24, 01:32:00,VALID,916.434,VALID,0,VALID,100,VALID,-0.0509425,VALID,17.5465,VALID,102,VALID,0,
2000-07-24, 01:33:00,VALID,916.418,VALID,0,VALID,100,VALID,-0.0849042,VALID,17.7631,VALID,2,VALID,0,
2000-07-24, 01:34:01,VALID,916.418,VALID,0,VALID,100,VALID,-0.0849042,VALID,17.9285,VALID,353,VALID,0,
2000-07-24, 01:35:00,VALID,916.407,VALID,0,VALID,100,VALID,-0.0849042,VALID,17.9832,VALID,330,VALID,0,
2000-07-24, 01:36:01,VALID,916.39,VALID,0,VALID,100,VALID,-0.0849042,VALID,18.0023,VALID,328,VALID,0,
2000-07-24, 01:37:00,VALID,916.388,VALID,0,VALID,100,VALID,-0.101885,VALID,17.9829,VALID,328,VALID,0,
2000-07-24, 01:38:00,VALID,916.398,VALID,0,VALID,100,VALID,-0.0849042,VALID,17.9928,VALID,328,VALID,0,
2000-07-24, 01:39:00,VALID,916.417,VALID,0,VALID,100,VALID,-0.101885,VALID,17.9924,VALID,328,VALID,0,
2000-07-24, 01:40:00,VALID,916.445,VALID,0,VALID,100,VALID,-0.0849042,VALID,17.9926,VALID,324,VALID,0,
2000-07-24, 01:41:00,VALID,916.462,VALID,0,VALID,100,VALID,-0.101885,VALID,18.0055,VALID,302,VALID,0,
2000-07-24, 01:42:00,VALID,916.484,VALID,0,VALID,100,VALID,0.0339617,VALID,17.9917,VALID,291,VALID,0,
2000-07-24, 01:43:00,VALID,916.485,VALID,0,VALID,100,VALID,0.0339617,VALID,17.9781,VALID,288,VALID,0,
2000-07-24, 01:44:01,VALID,916.477,VALID,0,VALID,100,VALID,0,VALID,17.9592,VALID,288,VALID,0,
2000-07-24, 01:45:00,VALID,916.48,VALID,0,VALID,100,VALID,0,VALID,17.9331,VALID,268,VALID,0,
2000-07-24, 01:46:00,VALID,916.48,VALID,0,VALID,100,VALID,0.0679233,VALID,17.8912,VALID,250,VALID,0,
2000-07-24, 01:47:00,VALID,916.486,VALID,0,VALID,100,VALID,0.0169808,VALID,17.8722,VALID,250,VALID,0,
2000-07-24, 01:48:00,VALID,916.508,VALID,0,VALID,100,VALID,0.0339617,VALID,17.8363,VALID,237,VALID,0,
2000-07-24, 01:49:00,VALID,916.539,VALID,0,VALID,100,VALID,0.0169808,VALID,17.7041,VALID,166,VALID,0,
2000-07-24, 01:50:00,VALID,916.526,VALID,0,VALID,100,VALID,0.0339617,VALID,17.5039,VALID,145,VALID,0,
2000-07-24, 01:51:00,VALID,916.556,VALID,0,VALID,100,VALID,0.0169808,VALID,17.4133,VALID,145,VALID,0,
2000-07-24, 01:52:01,VALID,916.565,VALID,0,VALID,100,VALID,0.0679233,VALID,17.3937,VALID,145,VALID,0,
2000-07-24, 01:53:00,VALID,916.573,VALID,0,VALID,100,VALID,0,VALID,17.3844,VALID,145,VALID,0,
2000-07-24, 01:54:00,VALID,916.576,VALID,0,VALID,100,VALID,0.0339617,VALID,17.3522,VALID,145,VALID,0,
2000-07-24, 01:55:00,VALID,916.572,VALID,0,VALID,100,VALID,0.0849042,VALID,17.3358,VALID,145,VALID,0,
2000-07-24, 01:56:00,VALID,916.593,VALID,0,VALID,100,VALID,0.0339617,VALID,17.3519,VALID,145,VALID,0,
2000-07-24, 01:57:00,VALID,916.597,VALID,0,VALID,100,VALID,0.0169808,VALID,17.3524,VALID,145,VALID,0,
2000-07-24, 01:58:01,VALID,916.6,VALID,0,VALID,100,VALID,0,VALID,17.3614,VALID,145,VALID,0,
2000-07-24, 01:59:00,VALID,916.583,VALID,0,VALID,100,VALID,0.0169808,VALID,17.3842,VALID,145,VALID,0,
2000-07-24, 02:00:01,VALID,916.568,VALID,0,VALID,100,VALID,0,VALID,17.4656,VALID,145,VALID,0,
2000-07-24, 02:01:00,VALID,916.568,VALID,0,VALID,100,VALID,0.0169808,VALID,17.5325,VALID,145,VALID,0,
2000-07-24, 02:02:00,VALID,916.565,VALID,0,VALID,100,VALID,0,VALID,17.5945,VALID,145,VALID,0,
2000-07-24, 02:03:01,VALID,916.552,VALID,0,VALID,100,VALID,-0.0339617,VALID,17.6499,VALID,145,VALID,0,
2000-07-24, 02:04:00,VALID,916.562,VALID,0,VALID,100,VALID,0,VALID,17.6718,VALID,145,VALID,0,
2000-07-24, 02:05:00,VALID,916.56,VALID,0,VALID,100,VALID,0.0169808,VALID,17.711,VALID,149,VALID,0,
2000-07-24, 02:06:01,VALID,916.554,VALID,0,VALID,100,VALID,0.0169808,VALID,17.7495,VALID,171,VALID,0,
2000-07-24, 02:07:00,VALID,916.555,VALID,0,VALID,100,VALID,0,VALID,17.7498,VALID,177,VALID,0,
2000-07-24, 02:08:01,VALID,916.562,VALID,0,VALID,100,VALID,0.0169808,VALID,17.6494,VALID,177,VALID,0,
2000-07-24, 02:09:00,VALID,916.568,VALID,0,VALID,100,VALID,0.0339617,VALID,17.6014,VALID,177,VALID,0,
2000-07-24, 02:10:00,VALID,916.572,VALID,0,VALID,100,VALID,0,VALID,17.5108,VALID,177,VALID,0,
2000-07-24, 02:11:01,VALID,916.587,VALID,0,VALID,100,VALID,0,VALID,17.4428,VALID,177,VALID,0,
2000-07-24, 02:12:00,VALID,916.605,VALID,0,VALID,100,VALID,-0.0169808,VALID,17.4204,VALID,177,VALID,0,
2000-07-24, 02:13:00,VALID,916.625,VALID,0,VALID,100,VALID,0,VALID,17.4045,VALID,177,VALID,0,
2000-07-24, 02:14:01,VALID,916.65,VALID,0,VALID,100,VALID,0,VALID,17.3849,VALID,177,VALID,0,
2000-07-24, 02:15:00,VALID,916.655,VALID,0,VALID,100,VALID,0,VALID,17.401,VALID,177,VALID,0,
2000-07-24, 02:16:01,VALID,916.674,VALID,0,VALID,100,VALID,0.0169808,VALID,17.4658,VALID,178,VALID,0,
2000-07-24, 02:17:00,VALID,916.682,VALID,0,VALID,100,VALID,0,VALID,17.5532,VALID,204,VALID,0,
2000-07-24, 02:18:00,VALID,916.693,VALID,0,VALID,100,VALID,0,VALID,17.6266,VALID,204,VALID,0,
2000-07-24, 02:19:00,VALID,916.686,VALID,0,VALID,100,VALID,0,VALID,17.6397,VALID,204,VALID,0,
2000-07-24, 02:20:00,VALID,916.678,VALID,0,VALID,100,VALID,0.0169808,VALID,17.5618,VALID,184,VALID,0.502878,
2000-07-24, 02:21:00,VALID,916.682,VALID,0,VALID,100,VALID,0.0169808,VALID,17.5496,VALID,169,VALID,0.746194,
2000-07-24, 02:22:01,VALID,916.686,VALID,0,VALID,100,VALID,0,VALID,17.5429,VALID,167,VALID,0.694727,
2000-07-24, 02:23:00,VALID,916.69,VALID,0,VALID,100,VALID,0,VALID,17.5657,VALID,167,VALID,0.0242599,
2000-07-24, 02:24:01,VALID,916.699,VALID,0,VALID,100,VALID,0,VALID,17.5493,VALID,167,VALID,0,
2000-07-24, 02:25:00,VALID,916.714,VALID,0,VALID,100,VALID,0.0169808,VALID,17.4527,VALID,167,VALID,0,
2000-07-24, 02:26:00,VALID,916.723,VALID,0,VALID,100,VALID,0.0169808,VALID,17.3039,VALID,167,VALID,0,
2000-07-24, 02:27:01,VALID,916.726,VALID,0,VALID,100,VALID,0,VALID,17.1944,VALID,167,VALID,0,
2000-07-24, 02:28:01,VALID,916.723,VALID,0,VALID,100,VALID,0.0509425,VALID,17.1621,VALID,167,VALID,0,
2000-07-24, 02:29:00,VALID,916.727,VALID,0,VALID,100,VALID,0.0169808,VALID,17.1946,VALID,167,VALID,0,
2000-07-24, 02:30:01,VALID,916.737,VALID,0,VALID,100,VALID,0.0169808,VALID,17.3106,VALID,167,VALID,0,
2000-07-24, 02:31:00,VALID,916.73,VALID,0,VALID,100,VALID,-0.0339617,VALID,17.5016,VALID,167,VALID,0,
2000-07-24, 02:32:01,VALID,916.71,VALID,0,VALID,100,VALID,0,VALID,17.5823,VALID,167,VALID,0,
2000-07-24, 02:33:00,VALID,916.695,VALID,0,VALID,100,VALID,0,VALID,17.5465,VALID,167,VALID,0,
2000-07-24, 02:34:00,VALID,916.668,VALID,0,VALID,100,VALID,0,VALID,17.4813,VALID,166,VALID,0,
2000-07-24, 02:35:01,VALID,916.647,VALID,0,VALID,100,VALID,0.0169808,VALID,17.4103,VALID,151,VALID,0,
2000-07-24, 02:36:00,VALID,916.639,VALID,0,VALID,100,VALID,0.0339617,VALID,17.4335,VALID,139,VALID,0,
2000-07-24, 02:37:00,VALID,916.643,VALID,0,VALID,100,VALID,0,VALID,17.4497,VALID,139,VALID,0,
2000-07-24, 02:38:01,VALID,916.638,VALID,0,VALID,100,VALID,0.0169808,VALID,17.4525,VALID,139,VALID,0,
2000-07-24, 02:39:00,VALID,916.654,VALID,0,VALID,100,VALID,0.0169808,VALID,17.4686,VALID,139,VALID,0,
2000-07-24, 02:40:01,VALID,916.655,VALID,0,VALID,100,VALID,0,VALID,17.4619,VALID,139,VALID,0,
2000-07-24, 02:41:00,VALID,916.654,VALID,0,VALID,100,VALID,0,VALID,17.5239,VALID,242,VALID,0.100535,
2000-07-24, 02:42:00,VALID,916.653,VALID,0,VALID,100,VALID,-0.0849042,VALID,17.6376,VALID,346,VALID,0.134868,
2000-07-24, 02:43:00,VALID,916.648,VALID,0,VALID,100,VALID,-0.101885,VALID,17.6129,VALID,10,VALID,0,
2000-07-24, 02:44:00,VALID,916.628,VALID,0,VALID,100,VALID,-0.101885,VALID,17.6286,VALID,315,VALID,0,
2000-07-24, 02:45:00,VALID,916.605,VALID,0,VALID,100,VALID,-0.101885,VALID,17.6861,VALID,342,VALID,0,
2000-07-24, 02:46:01,VALID,916.599,VALID,0,VALID,100,VALID,-0.101885,VALID,17.674,VALID,17,VALID,0,
2000-07-24, 02:47:00,VALID,916.577,VALID,0,VALID,100,VALID,-0.101885,VALID,17.6611,VALID,358,VALID,0,
2000-07-24, 02:48:01,VALID,916.586,VALID,0,VALID,100,VALID,-0.101885,VALID,17.7347,VALID,333,VALID,0,
2000-07-24, 02:49:00,VALID,916.57,VALID,0,VALID,100,VALID,-0.101885,VALID,17.7866,VALID,329,VALID,0,
2000-07-24, 02:50:00,VALID,916.587,VALID,0,VALID,100,VALID,-0.0849042,VALID,17.7804,VALID,321,VALID,0,
2000-07-24, 02:51:01,VALID,916.577,VALID,0,VALID,100,VALID,-0.101885,VALID,17.8099,VALID,321,VALID,0,
2000-07-24, 02:52:01,VALID,916.566,VALID,0,VALID,100,VALID,-0.101885,VALID,17.8544,VALID,274,VALID,0,
2000-07-24, 02:53:00,VALID,916.559,VALID,0,VALID,100,VALID,-0.101885,VALID,17.8512,VALID,273,VALID,0,
2000-07-24, 02:54:01,VALID,916.566,VALID,0,VALID,100,VALID,-0.101885,VALID,17.7866,VALID,273,VALID,0,
2000-07-24, 02:55:00,VALID,916.557,VALID,0,VALID,100,VALID,-0.101885,VALID,17.7744,VALID,274,VALID,0,
2000-07-24, 02:56:01,VALID,916.538,VALID,0,VALID,100,VALID,-0.0849042,VALID,17.7868,VALID,219,VALID,0,
2000-07-24, 02:57:00,VALID,916.536,VALID,0,VALID,100,VALID,-0.101885,VALID,17.7767,VALID,140,VALID,0,
2000-07-24, 02:58:00,VALID,916.521,VALID,0,VALID,100,VALID,-0.0679233,VALID,17.7474,VALID,131,VALID,0,
2000-07-24, 02:59:01,VALID,916.512,VALID,0,VALID,100,VALID,-0.0679233,VALID,17.7732,VALID,131,VALID,0,
2000-07-24, 03:00:00,VALID,916.494,VALID,0,VALID,100,VALID,-0.0849042,VALID,17.7961,VALID,131,VALID,0,
2000-07-24, 03:01:00,VALID,916.483,VALID,0,VALID,100,VALID,-0.0849042,VALID,17.8085,VALID,131,VALID,0,
2000-07-24, 03:02:01,VALID,916.466,VALID,0,VALID,100,VALID,-0.0509425,VALID,17.857,VALID,131,VALID,0,
2000-07-24, 03:03:00,VALID,916.442,VALID,0,VALID,100,VALID,-0.101885,VALID,17.9246,VALID,131,VALID,0,
2000-07-24, 03:04:01,VALID,916.42,VALID,0,VALID,100,VALID,-0.0849042,VALID,17.9793,VALID,131,VALID,0,
2000-07-24, 03:05:00,VALID,916.395,VALID,0,VALID,100,VALID,-0.0509425,VALID,18.0706,VALID,131,VALID,0,
2000-07-24, 03:06:00,VALID,916.375,VALID,0,VALID,100,VALID,-0.0849042,VALID,18.0798,VALID,131,VALID,0,
2000-07-24, 03:07:00,VALID,916.348,VALID,0,VALID,100,VALID,-0.0849042,VALID,18.0992,VALID,131,VALID,0,
2000-07-24, 03:08:00,VALID,916.321,VALID,0,VALID,100,VALID,-0.101885,VALID,18.0994,VALID,131,VALID,0,
2000-07-24, 03:09:00,VALID,916.305,VALID,0,VALID,100,VALID,-0.0849042,VALID,18.1186,VALID,131,VALID,0,
2000-07-24, 03:10:01,VALID,916.261,VALID,0,VALID,100,VALID,0,VALID,18.1057,VALID,131,VALID,0,
2000-07-24, 03:11:00,VALID,916.261,VALID,0,VALID,100,VALID,-0.0509425,VALID,18.0927,VALID,131,VALID,0,
2000-07-24, 03:12:01,VALID,916.247,VALID,0,VALID,100,VALID,-0.0849042,VALID,18.0861,VALID,133,VALID,0,
2000-07-24, 03:13:01,VALID,916.238,VALID,0,VALID,100,VALID,-0.0679233,VALID,18.1121,VALID,133,VALID,0,
2000-07-24, 03:14:00,VALID,916.233,VALID,0,VALID,100,VALID,-0.101885,VALID,18.1213,VALID,133,VALID,0,
2000-07-24, 03:15:01,VALID,916.221,VALID,0,VALID,100,VALID,-0.0849042,VALID,18.1246,VALID,133,VALID,0,
2000-07-24, 03:16:01,VALID,916.227,VALID,0,VALID,100,VALID,-0.0679233,VALID,18.1377,VALID,133,VALID,0,
2000-07-24, 03:17:00,VALID,916.228,VALID,0,VALID,100,VALID,-0.0509425,VALID,18.1696,VALID,127,VALID,0,
2000-07-24, 03:18:01,VALID,916.213,VALID,0,VALID,100,VALID,-0.0509425,VALID,18.1407,VALID,113,VALID,0,
2000-07-24, 03:19:00,VALID,916.215,VALID,0,VALID,100,VALID,-0.0169808,VALID,18.0895,VALID,111,VALID,0,
2000-07-24, 03:20:01,VALID,916.205,VALID,0,VALID,100,VALID,-0.0679233,VALID,18.0337,VALID,111,VALID,0,
2000-07-24, 03:21:01,VALID,916.21,VALID,0,VALID,100,VALID,-0.0339617,VALID,18.0342,VALID,105,VALID,0.107525,
2000-07-24, 03:22:00,VALID,916.195,VALID,0,VALID,100,VALID,-0.0679233,VALID,18.1119,VALID,67,VALID,0.0230263,
2000-07-24, 03:23:01,VALID,916.171,VALID,0,VALID,100,VALID,-0.0509425,VALID,18.131,VALID,75,VALID,0,
2000-07-24, 03:24:01,VALID,916.135,VALID,0,VALID,100,VALID,-0.0509425,VALID,18.1052,VALID,83,VALID,0.24116,
2000-07-24, 03:25:00,VALID,916.127,VALID,0,VALID,100,VALID,-0.0339617,VALID,18.1283,VALID,83,VALID,0.0629006,
2000-07-24, 03:26:01,VALID,916.099,VALID,0,VALID,100,VALID,-0.0849042,VALID,18.1693,VALID,83,VALID,0,
2000-07-24, 03:27:01,VALID,916.087,VALID,0,VALID,100,VALID,-0.0679233,VALID,18.2312,VALID,46,VALID,0,
2000-07-24, 03:28:01,VALID,916.059,VALID,0,VALID,100,VALID,-0.0679233,VALID,18.2897,VALID,32,VALID,0,
2000-07-24, 03:29:01,VALID,916.026,VALID,0,VALID,100,VALID,-0.0169808,VALID,18.328,VALID,32,VALID,0,
2000-07-24, 03:30:01,VALID,915.992,VALID,0,VALID,100,VALID,-0.0509425,VALID,18.3504,VALID,32,VALID,0,
2000-07-24, 03:31:00,VALID,915.955,VALID,0,VALID,100,VALID,-0.0169808,VALID,18.3442,VALID,32,VALID,0,
2000-07-24, 03:32:01,VALID,915.92,VALID,0,VALID,100,VALID,-0.0339617,VALID,18.334,VALID,80,VALID,0,
2000-07-24, 03:33:01,VALID,915.895,VALID,0,VALID,100,VALID,-0.0849042,VALID,18.2953,VALID,91,VALID,0,
2000-07-24, 03:34:01,VALID,915.87,VALID,0,VALID,100,VALID,-0.0509425,VALID,18.2856,VALID,91,VALID,0,
2000-07-24, 03:35:01,VALID,915.874,VALID,0,VALID,100,VALID,-0.0169808,VALID,18.2724,VALID,75,VALID,0,
2000-07-24, 03:36:01,VALID,915.872,VALID,0,VALID,100,VALID,-0.0169808,VALID,18.2884,VALID,77,VALID,0,
2000-07-24, 03:37:01,VALID,915.89,VALID,0,VALID,100,VALID,-0.0509425,VALID,18.2884,VALID,77,VALID,0,
2000-07-24, 03:38:01,VALID,915.896,VALID,0,VALID,100,VALID,-0.0169808,VALID,18.302,VALID,93,VALID,0,
2000-07-24, 03:39:01,VALID,915.912,VALID,0,VALID,100,VALID,0,VALID,18.2851,VALID,101,VALID,0,
2000-07-24, 03:40:01,VALID,915.923,VALID,0,VALID,100,VALID,-0.0169808,VALID,18.2953,VALID,95,VALID,0,
2000-07-24, 03:41:01,VALID,915.924,VALID,0,VALID,100,VALID,-0.0339617,VALID,18.3368,VALID,94,VALID,0,
2000-07-24, 03:42:01,VALID,915.922,VALID,0,VALID,100,VALID,0.0679233,VALID,18.3423,VALID,97,VALID,0,
2000-07-24, 03:43:01,VALID,915.92,VALID,0,VALID,100,VALID,0.0169808,VALID,18.3525,VALID,91,VALID,0,
2000-07-24, 03:44:01,VALID,915.927,VALID,0,VALID,100,VALID,0.0679233,VALID,18.3387,VALID,85,VALID,0,
2000-07-24, 03:45:01,VALID,915.924,VALID,0,VALID,100,VALID,0.0169808,VALID,18.3587,VALID,85,VALID,0,
2000-07-24, 03:46:01,VALID,915.933,VALID,0,VALID,100,VALID,0.0849042,VALID,18.3707,VALID,88,VALID,0,
2000-07-24, 03:47:01,VALID,915.943,VALID,0,VALID,100,VALID,0.0509425,VALID,18.3908,VALID,87,VALID,0,
2000-07-24, 03:48:01,VALID,915.951,VALID,0,VALID,100,VALID,0.0849042,VALID,18.3873,VALID,79,VALID,0,